| time (UTC) | temp C | wind direction | speed KPH | gust KPH | rain 1hr cm | rain 24hr cm | rain mn cm | humidity % | barometer mb |
| 20260503225334 | 1 | 354 | 0.0 | 0.0 | 0.00 | 0.00 | 0.00 | 67 | 1021.4 |
| 20260503224834 | 1 | 53 | 0.0 | 0.0 | 0.00 | 0.00 | 0.00 | 67 | 1021.3 |
| 20260503223834 | 1 | 45 | 0.0 | 1.6 | 0.00 | 0.00 | 0.00 | 66 | 1021.2 |
| 20260503222334 | 1 | 350 | 0.0 | 0.0 | 0.00 | 0.00 | 0.00 | 66 | 1021.2 |
| 20260503220835 | 1 | 85 | 3.2 | 4.8 | 0.00 | 0.00 | 0.00 | 66 | 1021.3 |
| 20260503215834 | 1 | 124 | 1.6 | 1.6 | 0.00 | 0.00 | 0.00 | 66 | 1021.1 |
| 20260503214334 | 1 | 77 | 1.6 | 1.6 | 0.00 | 0.00 | 0.00 | 65 | 1021.2 |
| 20260503213333 | 1 | 58 | 0.0 | 1.6 | 0.00 | 0.00 | 0.00 | 65 | 1021.1 |
| 20260503212834 | 2 | 70 | 1.6 | 1.6 | 0.00 | 0.00 | 0.00 | 65 | 1020.9 |
| 20260503211334 | 2 | 52 | 0.0 | 0.0 | 0.00 | 0.00 | 0.00 | 64 | 1021.1 |
| 20260503210334 | 2 | 72 | 0.0 | 1.6 | 0.00 | 0.00 | 0.00 | 64 | 1021.1 |
| 20260503205834 | 2 | 106 | 1.6 | 3.2 | 0.00 | 0.00 | 0.00 | 64 | 1020.8 |
| 20260503203334 | 3 | 323 | 1.6 | 3.2 | 0.00 | 0.00 | 0.00 | 63 | 1021.1 |
| 20260503201834 | 3 | 341 | 0.0 | 1.6 | 0.00 | 0.00 | 0.00 | 62 | 1020.9 |
| 20260503201334 | 3 | 327 | 1.6 | 1.6 | 0.00 | 0.00 | 0.00 | 62 | 1021.0 |
| 20260503200834 | 3 | 313 | 0.0 | 1.6 | 0.00 | 0.00 | 0.00 | 62 | 1021.2 |
| 20260503200334 | 3 | 2 | 1.6 | 3.2 | 0.00 | 0.00 | 0.00 | 62 | 1021.2 |
| 20260503195834 | 3 | 358 | 1.6 | 1.6 | 0.00 | 0.00 | 0.00 | 61 | 1021.0 |
| 20260503195333 | 3 | 346 | 0.0 | 1.6 | 0.00 | 0.00 | 0.00 | 61 | 1021.2 |
| 20260503194334 | 4 | 358 | 0.0 | 1.6 | 0.00 | 0.00 | 0.00 | 60 | 1021.1 |
| 20260503193834 | 4 | 60 | 0.0 | 4.8 | 0.00 | 0.00 | 0.00 | 61 | 1021.0 |
| 20260503191834 | 5 | 329 | 1.6 | 3.2 | 0.00 | 0.00 | 0.00 | 59 | 1020.9 |
| 20260503190335 | 5 | 318 | 1.6 | 3.2 | 0.00 | 0.00 | 0.00 | 58 | 1021.0 |
| 20260503185334 | 5 | 308 | 3.2 | 4.8 | 0.00 | 0.00 | 0.00 | 58 | 1020.9 |
| 20260503184834 | 5 | 307 | 1.6 | 3.2 | 0.00 | 0.00 | 0.00 | 57 | 1021.0 |
| 20260503184334 | 5 | 320 | 1.6 | 3.2 | 0.00 | 0.00 | 0.00 | 56 | 1020.8 |
| 20260503183834 | 5 | 314 | 1.6 | 3.2 | 0.00 | 0.00 | 0.00 | 56 | 1020.9 |
| 20260503182334 | 6 | 276 | 1.6 | 3.2 | 0.00 | 0.00 | 0.00 | 55 | 1020.7 |
| 20260503180334 | 7 | 231 | 3.2 | 4.8 | 0.00 | 0.00 | 0.00 | 54 | 1020.6 |
| 20260503175834 | 7 | 246 | 1.6 | 3.2 | 0.00 | 0.00 | 0.00 | 54 | 1020.8 |
| 20260503174834 | 7 | 274 | 1.6 | 3.2 | 0.00 | 0.00 | 0.00 | 53 | 1020.8 |
| 20260503174334 | 7 | 279 | 1.6 | 4.8 | 0.00 | 0.00 | 0.00 | 53 | 1020.8 |
| 20260503172333 | 8 | 323 | 4.8 | 9.7 | 0.00 | 0.03 | 0.00 | 52 | 1020.5 |
| 20260503171834 | 8 | 333 | 3.2 | 12.9 | 0.00 | 0.05 | 0.00 | 51 | 1020.5 |
| 20260503170834 | 8 | 35 | 8.0 | 12.9 | 0.00 | 0.08 | 0.00 | 50 | 1020.7 |
| 20260503150834 | 10 | 356 | 3.2 | 11.3 | 0.00 | 0.30 | 0.00 | 48 | 1020.6 |
| 20260503150334 | 10 | 354 | 8.0 | 20.9 | 0.00 | 0.30 | 0.00 | 48 | 1020.8 |
| 20260503131334 | 10 | 336 | 4.8 | 14.5 | 0.00 | 0.33 | 0.00 | 50 | 1021.5 |
| 20260503130334 | 10 | 342 | 4.8 | 9.7 | 0.00 | 0.33 | 0.00 | 50 | 1021.3 |
| 20260503090334 | 8 | 296 | 4.8 | 11.3 | 0.00 | 0.33 | 0.00 | 57 | 1022.9 |
| 20260503081334 | 6 | 342 | 3.2 | 12.9 | 0.00 | 0.33 | 0.00 | 62 | 1023.2 |
| 20260503080333 | 6 | 336 | 8.0 | 16.1 | 0.00 | 0.33 | 0.00 | 62 | 1023.2 |
| 20260503071833 | 6 | 260 | 4.8 | 9.7 | 0.00 | 0.33 | 0.00 | 66 | 1023.1 |
| 20260503071334 | 6 | 312 | 4.8 | 9.7 | 0.00 | 0.33 | 0.00 | 66 | 1023.3 |
| 20260503070834 | 6 | 292 | 3.2 | 12.9 | 0.00 | 0.33 | 0.00 | 66 | 1023.2 |
| 20260503060334 | 5 | 318 | 1.6 | 9.7 | 0.00 | 0.33 | 0.00 | 74 | 1023.1 |
| 20260503053834 | 4 | 257 | 4.8 | 9.7 | 0.00 | 0.33 | 0.00 | 77 | 1023.1 |
| 20260503051833 | 3 | 256 | 4.8 | 12.9 | 0.00 | 0.33 | 0.00 | 77 | 1022.8 |
| 20260503051334 | 3 | 292 | 4.8 | 12.9 | 0.00 | 0.33 | 0.00 | 77 | 1022.8 |
| 20260503050834 | 3 | 305 | 6.4 | 19.3 | 0.00 | 0.33 | 0.00 | 77 | 1022.8 |
| 20260503050334 | 3 | 300 | 9.7 | 19.3 | 0.00 | 0.33 | 0.00 | 78 | 1022.9 |
| 20260503045833 | 3 | 312 | 9.7 | 16.1 | 0.00 | 0.33 | 0.00 | 78 | 1022.7 |
| 20260503044333 | 2 | 299 | 4.8 | 12.9 | 0.00 | 0.33 | 0.00 | 77 | 1022.8 |
| 20260503042834 | 2 | 323 | 4.8 | 9.7 | 0.00 | 0.33 | 0.00 | 78 | 1022.4 |
| 20260503041334 | 2 | 26 | 0.0 | 1.6 | 0.00 | 0.33 | 0.00 | 78 | 1022.4 |
| 20260503040834 | 2 | 5 | 0.0 | 4.8 | 0.00 | 0.33 | 0.00 | 78 | 1022.4 |
| 20260503040333 | 2 | 220 | 1.6 | 4.8 | 0.00 | 0.33 | 0.00 | 78 | 1022.3 |
| 20260503035834 | 2 | 263 | 1.6 | 3.2 | 0.00 | 0.33 | 0.00 | 78 | 1022.1 |
| 20260503035333 | 2 | 64 | 1.6 | 3.2 | 0.00 | 0.33 | 0.00 | 78 | 1022.0 |
| 20260503034834 | 2 | 10 | 0.0 | 3.2 | 0.00 | 0.33 | 0.00 | 78 | 1021.9 |
| 20260503034334 | 2 | 313 | 1.6 | 3.2 | 0.00 | 0.33 | 0.00 | 77 | 1021.9 |
| 20260503033833 | 2 | 303 | 3.2 | 4.8 | 0.00 | 0.33 | 0.00 | 77 | 1021.7 |
| 20260503033333 | 2 | 315 | 1.6 | 3.2 | 0.00 | 0.33 | 0.00 | 77 | 1021.7 |
| 20260503031333 | 2 | 22 | 0.0 | 3.2 | 0.00 | 0.33 | 0.00 | 77 | 1021.6 |
| 20260503030333 | 1 | 336 | 8.0 | 16.1 | 0.00 | 0.33 | 0.00 | 78 | 1021.4 |
| 20260503025833 | 1 | 311 | 6.4 | 9.7 | 0.00 | 0.33 | 0.00 | 77 | 1021.4 |
| 20260503021834 | 2 | 158 | 3.2 | 3.2 | 0.00 | 0.33 | 0.00 | 76 | 1021.3 |
| 20260503020833 | 2 | 75 | 1.6 | 3.2 | 0.00 | 0.33 | 0.00 | 76 | 1021.1 |
| 20260503015833 | 2 | 91 | 3.2 | 4.8 | 0.00 | 0.33 | 0.00 | 76 | 1021.2 |
| 20260503015334 | 2 | 93 | 1.6 | 8.0 | 0.00 | 0.33 | 0.00 | 77 | 1020.9 |
| 20260503014333 | 2 | 285 | 3.2 | 9.7 | 0.00 | 0.33 | 0.00 | 77 | 1021.0 |
| 20260503013834 | 2 | 311 | 4.8 | 11.3 | 0.00 | 0.33 | 0.00 | 77 | 1021.2 |
| 20260503013334 | 2 | 302 | 4.8 | 11.3 | 0.00 | 0.33 | 0.00 | 77 | 1021.0 |
| 20260503011833 | 2 | 305 | 4.8 | 9.7 | 0.00 | 0.33 | 0.00 | 76 | 1021.1 |
| 20260503011334 | 2 | 265 | 3.2 | 8.0 | 0.00 | 0.33 | 0.00 | 76 | 1021.4 |
| 20260503010834 | 2 | 259 | 1.6 | 4.8 | 0.00 | 0.33 | 0.00 | 76 | 1021.2 |
| 20260503010333 | 2 | 287 | 1.6 | 4.8 | 0.00 | 0.33 | 0.00 | 75 | 1021.3 |
| 20260503005333 | 2 | 270 | 1.6 | 3.2 | 0.00 | 0.33 | 0.00 | 75 | 1021.1 |
| 20260503002834 | 3 | 308 | 1.6 | 4.8 | 0.00 | 0.33 | 0.00 | 75 | 1020.8 |
| 20260503002333 | 3 | 293 | 0.0 | 1.6 | 0.00 | 0.33 | 0.00 | 75 | 1020.8 |
| 20260503001833 | 3 | 338 | 0.0 | 3.2 | 0.00 | 0.33 | 0.00 | 75 | 1020.8 |
| 20260503001334 | 3 | 310 | 3.2 | 9.7 | 0.00 | 0.33 | 0.00 | 75 | 1020.9 |
| 20260502235334 | 3 | 286 | 4.8 | 9.7 | 0.00 | 0.33 | 0.00 | 75 | 1020.6 |
| 20260502234333 | 4 | 284 | 1.6 | 3.2 | 0.00 | 0.33 | 0.00 | 75 | 1020.5 |
| 20260502233334 | 4 | 297 | 1.6 | 4.8 | 0.00 | 0.33 | 0.00 | 75 | 1020.8 |
| 20260502232834 | 4 | 306 | 3.2 | 8.0 | 0.00 | 0.33 | 0.00 | 75 | 1020.8 |
| 20260502230833 | 4 | 280 | 1.6 | 3.2 | 0.00 | 0.33 | 0.00 | 75 | 1021.1 |